TimeEST,TemperatureF,Dew PointF,Humidity,Sea Level PressureIn,VisibilityMPH,Wind Direction,Wind SpeedMPH,Gust SpeedMPH,PrecipitationIn,Events,Conditions,WindDirDegrees,DateUTC
1:56 AM,48.9,45.0,86,29.82,10.0,SSW,8.1,-,N/A,,Clear,210,2013-01-12 06:56:00
2:56 AM,50.0,45.0,83,29.84,10.0,SW,13.8,19.6,N/A,,Clear,230,2013-01-12 07:56:00
3:56 AM,51.1,44.1,77,29.83,10.0,SW,11.5,-,N/A,,Clear,220,2013-01-12 08:56:00
4:56 AM,52.0,44.1,74,29.82,10.0,SW,11.5,20.7,N/A,,Clear,230,2013-01-12 09:56:00
5:56 AM,52.0,43.0,71,29.82,10.0,SSW,12.7,20.7,N/A,,Clear,210,2013-01-12 10:56:00
6:56 AM,52.0,43.0,71,29.85,10.0,SW,11.5,-,N/A,,Clear,220,2013-01-12 11:56:00
7:56 AM,51.1,43.0,74,29.88,10.0,SW,12.7,-,N/A,,Clear,220,2013-01-12 12:56:00
8:56 AM,51.1,44.1,77,29.90,10.0,SW,12.7,-,N/A,,Clear,230,2013-01-12 13:56:00
9:56 AM,53.1,45.0,74,29.91,10.0,SW,10.4,-,N/A,,Clear,230,2013-01-12 14:56:00
10:56 AM,55.0,46.0,72,29.91,10.0,SW,10.4,18.4,N/A,,Clear,220,2013-01-12 15:56:00
11:56 AM,57.0,46.0,67,29.90,10.0,WSW,13.8,-,N/A,,Clear,240,2013-01-12 16:56:00
12:56 PM,57.0,46.0,67,29.89,10.0,SW,13.8,-,N/A,,Clear,230,2013-01-12 17:56:00
1:56 PM,59.0,46.0,62,29.91,10.0,WSW,10.4,17.3,N/A,,Clear,250,2013-01-12 18:56:00
2:56 PM,60.1,42.1,51,29.91,10.0,WSW,13.8,19.6,N/A,,Clear,240,2013-01-12 19:56:00
3:56 PM,59.0,43.0,55,29.92,10.0,WSW,8.1,-,N/A,,Clear,240,2013-01-12 20:56:00
4:56 PM,57.0,43.0,59,29.94,10.0,SW,6.9,-,N/A,,Clear,230,2013-01-12 21:56:00
5:56 PM,54.0,43.0,66,29.92,10.0,WSW,3.5,-,N/A,,Clear,240,2013-01-12 22:56:00
6:56 PM,51.1,43.0,74,29.93,10.0,Calm,Calm,-,N/A,,Clear,0,2013-01-12 23:56:00
7:56 PM,50.0,43.0,77,29.92,10.0,West,3.5,-,N/A,,Clear,270,2013-01-13 00:56:00
8:56 PM,48.0,43.0,83,29.90,10.0,Calm,Calm,-,N/A,,Clear,0,2013-01-13 01:56:00
9:56 PM,48.9,39.9,71,29.90,10.0,Calm,Calm,-,N/A,,Overcast,0,2013-01-13 02:56:00
10:56 PM,48.0,39.0,71,29.87,9.0,North,4.6,-,0.00,Rain,Light Rain,10,2013-01-13 03:56:00
11:56 PM,43.0,37.0,80,29.85,6.0,North,8.1,-,0.10,Rain,Rain,10,2013-01-13 04:56:00